Theta_e
355 356 358 358 357 356 355 354 353 352 352 352 352 352 351 350 351 352 352 352 352 350 349 349 350 352 354 353 350 350 355 356 356 354 354 355 355 354 353 350 346 346
355 357 359 359 359 357 355 354 352 350 349 351 352 351 351 350 350 351 350 352 352 351 349 349 349 349 351 352 350 349 353 355 355 354 353 353 354 353 351 350 349 347
357 358 359 359 359 357 356 355 354 351 350 351 351 351 351 350 349 349 349 350 352 351 350 348 348 349 351 352 351 351 353 353 353 354 352 352 353 352 351 351 349 348
358 358 357 358 359 358 357 357 355 353 351 351 350 349 349 349 348 350 349 350 351 351 350 349 348 348 350 351 352 353 354 354 353 354 355 354 354 354 352 349 349 349
357 357 355 357 359 358 357 356 356 355 353 351 350 348 348 348 349 349 349 349 350 351 351 350 348 348 349 350 351 352 355 357 356 355 357 356 355 356 353 348 349 351
357 357 355 357 358 357 356 356 355 354 353 352 350 349 350 351 349 348 349 349 349 349 350 350 349 348 348 350 351 352 355 358 357 356 357 357 357 357 354 350 351 353
357 356 357 358 359 357 356 355 355 354 354 353 352 351 353 353 350 348 348 350 350 350 350 350 350 349 349 350 352 353 355 355 355 355 357 358 358 357 354 350 351 354
356 356 357 358 358 357 357 356 356 355 354 354 353 353 353 354 353 352 349 349 351 351 349 350 350 350 350 350 351 352 353 354 354 356 357 358 358 358 356 352 351 352
356 356 356 357 357 358 358 357 357 357 355 354 354 354 354 354 354 354 352 350 350 351 351 350 350 350 351 351 350 350 351 352 354 356 356 357 356 356 356 353 352 352
355 355 356 356 356 356 357 357 357 356 354 354 354 355 357 356 354 354 353 352 351 351 351 351 351 351 351 351 349 350 350 350 352 354 353 354 354 354 354 354 353 353
353 353 355 356 354 354 355 355 355 354 354 355 354 355 357 357 356 354 353 351 351 351 351 352 351 351 351 353 351 351 351 350 351 352 352 355 356 355 353 353 353 351
352 353 355 355 354 355 355 356 356 356 355 356 355 354 354 354 356 356 354 352 351 351 350 351 351 350 350 352 351 350 351 352 352 352 352 355 356 354 353 353 352 352
353 352 353 354 354 355 356 357 359 358 357 356 356 355 354 353 354 354 354 353 352 351 350 350 350 350 350 350 350 349 349 350 351 351 352 353 354 354 354 353 351 351
352 352 352 353 354 356 356 358 358 357 356 356 356 354 353 353 353 353 353 353 352 352 351 350 350 349 349 349 349 349 349 349 350 350 351 351 352 353 354 353 351 350
351 351 352 353 355 357 358 358 356 355 355 355 354 353 352 352 352 352 353 353 353 353 352 351 350 350 350 351 351 352 351 350 349 349 350 349 349 350 351 352 351 350
352 352 353 355 356 357 358 359 356 355 356 356 355 354 353 352 351 353 353 353 353 353 352 351 351 350 350 351 353 353 353 352 351 349 348 348 347 347 347 349 350 350
354 353 355 358 357 356 357 358 356 355 356 356 356 354 353 351 351 352 353 352 352 353 352 350 350 351 350 351 352 352 352 352 352 349 348 347 347 347 347 347 348 349
356 356 357 358 358 357 357 357 357 356 355 354 354 353 351 352 351 351 352 352 350 351 352 350 349 350 351 350 351 351 352 352 351 350 349 348 347 347 347 346 346 347
357 358 357 357 358 357 355 355 356 354 353 353 352 351 350 351 350 349 350 351 350 351 352 351 349 350 352 350 349 349 351 352 352 351 349 348 347 347 346 347 347 346
359 358 357 358 358 354 353 354 354 353 352 351 351 350 350 350 349 348 348 349 350 351 352 352 349 349 352 352 349 346 348 351 353 352 350 349 347 346 346 347 347 348
360 359 357 357 357 355 353 353 353 353 353 352 351 349 349 349 348 349 349 349 349 349 350 350 350 350 351 352 350 348 348 350 351 353 353 352 349 347 347 346 346 351
359 358 357 356 356 355 354 353 353 354 354 353 351 349 349 349 348 349 349 349 348 347 348 348 348 349 349 351 351 349 348 349 350 351 353 353 352 351 350 348 348 351
359 358 357 356 355 355 355 353 354 355 354 353 351 351 350 348 348 349 348 347 346 347 348 348 348 348 348 350 351 349 348 349 350 351 352 352 353 353 353 352 351 351
358 358 357 355 355 356 356 354 354 355 355 353 352 352 351 348 348 348 348 347 346 347 349 348 348 348 348 350 351 350 350 351 351 352 353 353 353 354 355 355 353 353
356 357 356 355 356 356 356 356 355 355 355 352 351 352 351 350 349 347 347 347 347 347 347 347 348 348 348 350 352 351 351 351 351 352 353 353 353 353 355 355 354 353
356 356 356 356 357 356 356 355 354 355 354 353 351 351 351 350 350 349 348 348 347 347 347 347 349 349 349 351 351 352 352 351 351 351 351 351 350 350 353 353 352 351
Wind_Speed
13 14 14 13 12 13 14 13 13 13 14 16 16 17 18 19 19 20 20 21 22 20 20 21 21 20 19 19 19 20 17 14 14 15 15 13 12 10 10 10 11 12
13 13 14 14 14 16 16 15 16 15 15 16 17 17 18 19 20 21 21 21 21 21 20 22 23 22 21 20 19 20 19 17 16 16 16 15 14 13 12 11 11 12
17 16 16 16 16 17 16 15 17 17 16 15 15 17 18 18 20 22 23 22 21 22 21 21 22 22 22 21 19 20 20 20 18 16 16 18 16 15 14 12 12 12
21 21 19 17 16 16 17 18 19 19 19 16 14 16 18 19 20 20 22 23 23 23 23 22 22 22 22 21 21 22 20 20 21 17 16 18 17 15 14 14 13 13
22 22 20 19 19 20 21 21 21 20 21 20 18 19 21 21 21 20 21 23 24 23 23 23 23 23 22 22 23 24 21 19 21 19 17 18 18 15 15 16 15 14
20 21 21 19 20 22 23 23 23 22 22 22 22 23 23 21 22 22 21 23 24 23 24 24 25 24 23 23 23 24 23 20 20 20 19 18 18 17 16 16 16 15
19 20 19 18 18 21 23 23 23 22 22 22 22 24 24 21 21 23 23 24 24 24 24 25 26 26 25 24 24 24 25 22 21 22 21 19 19 18 17 18 18 16
20 18 18 18 19 21 23 24 23 21 20 20 21 25 27 24 22 23 23 24 25 26 26 25 27 29 27 25 25 25 25 23 22 24 25 22 20 20 19 19 19 19
20 19 18 19 20 21 23 24 24 22 20 21 23 25 27 29 28 26 24 24 24 26 27 27 27 29 28 27 27 27 26 24 22 25 29 27 23 21 22 20 19 19
17 18 19 19 20 20 22 23 23 22 21 23 25 24 24 27 30 32 29 25 22 23 27 28 26 27 27 27 27 26 27 26 23 24 28 29 25 22 22 22 20 19
16 17 17 17 18 18 18 19 20 20 21 23 24 25 24 23 26 32 34 31 25 24 27 28 26 26 27 26 26 25 25 26 24 22 24 26 25 23 22 22 22 21
14 15 15 16 16 16 16 17 17 17 19 21 22 24 26 25 25 28 32 33 31 28 28 28 26 25 28 29 28 27 25 24 24 23 22 23 25 24 23 22 22 22
14 15 14 14 14 14 14 15 15 16 18 20 23 24 25 26 27 28 30 32 33 33 31 29 26 24 26 29 30 30 28 26 25 24 23 23 24 24 23 23 23 22
15 14 12 12 13 13 13 14 15 17 18 20 23 24 25 27 29 30 31 32 34 35 34 32 30 26 25 27 30 31 30 28 26 25 24 23 23 24 23 23 23 23
13 12 11 12 12 12 13 14 15 15 17 19 22 24 26 29 30 30 30 31 33 35 35 33 32 30 26 26 29 30 29 27 26 24 25 24 23 23 23 23 23 23
11 11 11 12 12 12 13 14 14 14 16 18 20 23 26 28 29 30 30 30 31 33 34 33 32 32 29 27 29 31 29 26 24 23 23 24 22 22 23 23 22 22
11 12 12 11 11 12 12 12 13 14 15 16 19 22 25 27 30 32 32 31 30 30 32 34 33 31 29 27 28 30 30 26 24 22 21 22 21 20 21 21 21 22
11 11 11 11 11 10 10 10 12 13 14 15 17 20 22 25 31 34 32 31 31 31 32 35 36 31 27 28 29 28 28 26 24 23 21 21 21 20 19 20 20 21
11 10 10 10 9 8 9 9 10 11 12 11 13 16 17 18 24 29 29 28 29 30 29 30 34 31 23 24 30 30 27 24 22 21 20 20 21 21 19 17 16 17
10 9 9 9 8 7 7 8 9 9 9 8 9 11 11 11 16 22 24 27 27 27 25 24 29 32 25 21 28 31 28 25 21 17 16 17 18 19 19 17 14 12
9 8 8 7 7 7 6 6 7 7 6 6 7 7 8 9 13 18 22 25 26 26 26 23 25 31 27 21 25 29 28 28 24 17 13 13 15 16 18 19 16 11
8 8 7 6 6 6 6 6 6 5 5 5 5 5 6 7 10 15 19 22 24 24 26 26 27 30 26 19 22 27 26 25 25 21 16 14 13 14 15 17 17 15
7 7 7 6 5 6 6 5 5 4 4 4 4 4 4 4 5 9 14 18 19 19 20 22 24 28 24 18 20 24 23 23 22 21 20 18 16 14 13 15 17 18
7 7 7 6 5 6 5 4 4 4 3 3 3 3 3 1 1 2 5 10 14 18 20 18 16 20 21 17 17 19 21 21 21 19 19 18 17 14 12 13 15 16
7 7 6 6 6 5 5 4 4 4 3 2 2 2 2 1 1 1 3 6 10 14 18 17 14 16 17 16 15 16 18 19 19 18 18 17 15 13 13 14 16 16
7 7 7 7 6 5 5 5 4 3 3 2 1 2 2 1 2 2 4 7 8 10 14 15 14 15 17 16 15 15 17 19 20 19 17 15 13 14 15 17 18 19
Wind_Direction
203 201 204 204 201 201 199 197 199 208 218 214 209 212 210 207 204 203 204 200 200 203 200 200 201 200 204 209 207 200 194 198 200 198 196 199 211 211 211 214 205 207
204 202 202 204 208 210 209 204 198 202 222 227 218 215 214 212 207 204 205 202 200 204 203 200 200 201 204 208 209 204 200 201 201 198 198 201 208 213 215 213 208 214
202 201 198 203 209 213 215 210 203 203 214 230 234 227 221 217 212 207 206 203 200 203 205 203 199 198 202 208 209 203 201 204 204 201 202 203 208 215 217 214 217 226
206 206 199 202 207 211 216 214 211 209 210 223 239 236 229 224 218 211 206 205 204 203 203 204 202 200 202 206 205 199 200 208 207 203 201 200 205 213 215 215 221 228
210 214 207 205 208 211 216 218 218 214 212 217 220 223 230 230 223 217 210 207 205 203 203 205 205 204 202 203 205 201 200 206 205 204 205 202 202 206 212 213 213 218
213 217 215 212 213 215 218 221 223 219 216 216 213 219 231 230 220 220 218 211 207 205 205 205 205 205 203 202 206 205 203 205 203 202 204 203 202 203 208 212 209 213
221 221 218 215 219 223 224 226 227 225 223 223 220 224 231 230 221 220 219 212 209 208 207 205 204 205 205 201 202 204 206 208 208 206 205 204 205 204 208 215 214 213
223 225 221 220 223 227 232 233 232 229 227 229 231 229 229 229 226 222 219 214 211 209 209 208 205 204 205 203 202 203 206 208 208 207 206 204 206 208 209 215 216 214
217 221 222 223 224 226 230 235 237 236 232 228 230 231 230 229 228 224 221 216 211 208 208 210 208 204 203 204 205 205 204 206 208 209 210 210 210 211 212 215 218 216
217 221 223 222 224 228 231 234 237 237 237 232 229 229 231 232 231 229 227 222 217 209 207 210 211 207 204 205 207 206 205 208 210 211 214 214 213 213 213 216 219 217
216 221 222 222 226 230 232 236 237 234 235 235 231 229 230 232 233 232 231 229 227 220 209 207 210 209 206 205 205 205 206 210 211 210 210 210 211 215 215 215 218 218
217 220 222 224 227 231 233 237 239 236 236 236 235 234 234 234 235 236 235 233 233 231 219 210 212 214 208 205 206 207 207 210 212 212 210 207 210 216 219 219 219 219
222 222 220 222 227 232 234 235 235 236 237 237 238 239 237 235 235 238 239 235 234 234 228 220 221 221 212 207 208 208 208 209 210 212 212 211 213 217 219 221 222 221
221 223 222 225 231 232 230 231 235 238 240 241 244 245 242 239 238 240 241 237 234 233 231 225 223 224 218 211 209 208 208 209 208 208 210 210 213 216 217 222 225 225
221 222 223 227 231 229 227 232 240 246 249 249 250 251 248 245 242 238 236 234 232 232 230 225 223 224 220 212 207 203 200 203 205 206 207 209 213 215 217 221 224 226
224 225 227 229 231 230 230 237 246 252 254 255 255 255 254 250 243 236 233 231 229 228 227 224 224 228 224 212 205 201 196 196 200 203 206 209 215 220 221 222 223 226
223 226 228 230 234 237 237 242 248 252 256 260 263 263 260 253 242 234 233 231 227 226 226 220 220 227 225 212 205 203 201 200 201 203 206 209 213 219 223 225 226 227
223 228 232 234 238 242 245 247 250 254 260 263 266 271 272 261 244 233 232 233 228 227 226 219 216 222 223 213 205 202 201 202 205 207 210 215 218 221 223 225 231 232
223 227 236 240 241 246 252 253 254 260 267 271 274 283 288 270 242 230 229 229 225 222 221 215 212 216 219 213 209 206 201 200 204 208 210 214 217 219 221 223 232 238
223 227 238 244 244 251 258 260 268 274 277 282 286 290 294 270 236 226 226 224 220 218 216 209 208 212 217 216 212 211 208 202 200 201 204 210 212 214 221 229 238 247
225 227 238 245 249 259 264 266 277 284 277 284 296 292 293 280 247 231 226 221 219 219 215 208 205 206 210 219 215 210 209 209 207 204 204 213 218 217 224 232 238 246
230 232 238 245 250 257 266 271 278 279 264 279 304 292 289 299 270 247 234 222 216 215 215 216 215 206 203 214 216 209 209 213 215 215 215 220 227 228 230 233 234 237
233 234 239 246 250 253 263 271 269 260 256 268 298 297 292 313 290 255 235 221 209 201 201 210 216 211 207 213 212 209 212 215 216 218 222 226 230 231 232 235 237 239
230 234 238 244 251 252 257 267 257 244 251 257 265 286 298 293 274 245 218 206 198 195 194 191 197 205 208 207 204 205 210 212 212 215 220 224 225 225 227 232 237 240
221 229 236 237 246 251 249 258 255 237 240 252 240 254 280 244 179 137 154 172 181 192 196 195 195 200 200 199 199 203 208 209 209 212 217 219 219 222 229 234 237 239
216 220 227 228 234 242 238 240 246 237 240 263 231 205 213 198 176 168 169 172 173 175 181 191 200 198 196 197 198 203 211 212 210 213 216 217 217 225 234 237 239 243